星链-1666 (STARLINK-1666 )

导读 | 豆包AI

STARLINK-1666是美国SpaceX公司星链(Starlink)项目的V1.0版本卫星,于2020年9月3日由美国发射升空,运行在近地点约355千米、远地点约357千米的近地轨道,轨道倾角约43度,周期约91.7分钟。作为星链星座的组成部分,它旨在为全球尤其是基础设施匮乏的偏远地区提供高速低延迟宽带互联网服务,助力缩小数字鸿沟,同时也可为部分行业通信提供支撑。

基本信息
目录编号:
46357
目录名称:
STARLINK-1666
国际标识:
2020-062AJ
轨道中心:
EARTH
卫星名称:
星链-1666
卫星全名:
星链-1666 (STARLINK-1666 )
卫星状态:
在轨 (已飞行2065 天)
发射日期:
2020-09-03 UTC
国别 :
美国 (US)
星等 :
--
轨道信息
数据来源 国际轨道数据 AOE轨道数据
星历时间 2026-04-30T14:00:02+0800
3小时前
查看轨道信息
2026-04-29T17:00:00+0800
1天前
查看轨道信息
半长轴 6735.685km 6736.454km
偏心率 0.0005017 0.0004765
轨道倾角 53.040° 53.042°
近地点辐角 51.820° 49.802°
升交点赤经 81.572° 85.901°
平近点角 347.147° 79.552°
近地点 354.168km 355.107km
远地点 360.928km 361.527km
周期 91.692分钟 91.708分钟
每日圈数 15.704717 15.70203
详细信息
固有亮度:
5
最大亮度:
2.5
卫星平台:
Starlink V1.0
覆盖范围:
全球
运营商:
太空探索技术公司
运营商所在国:
美国
制造商(研发单位):
太空探索技术公司
制造商所在国:
美国
使用方式:
暂无
卫星简介
星链(Starlink)计划是由太空探索技术公司(SpaceX)提出的一个巨型低轨卫星互联网星座项目,计划在2019年至2024年间在太空搭建由约1.2万颗卫星组成的“星链”网络,其中1584颗将部署在地球上空550千米处的近地轨道,并从2020年开始工作。该卫星仍在工作。
2D轨道图
3D轨道图
轨道高度分析图
轨道倾角分析图
轨道综合分析图
查看轨道综合分析图